Wind_Speed
7 6 6 5 5 4 4 3 2 1 1 0 0 2 3 3 3 3 3 3 3 4 5 6 7 7 6 7 9 9 9 9 9 9 9 10 10 10 11 11 11 11 10
6 6 5 5 5 4 4 4 3 2 1 1 0 1 2 3 3 3 4 5 5 6 6 6 7 7 7 8 8 8 8 9 9 10 10 10 11 12 12 13 13 13 13
6 6 5 5 5 5 4 3 3 3 2 1 1 1 1 2 2 3 4 4 5 6 6 6 7 7 7 7 8 9 8 8 9 10 11 12 12 12 13 13 13 14 14
6 6 5 5 4 4 3 2 2 2 2 2 2 2 2 3 3 3 4 4 4 5 6 7 7 7 8 8 8 9 9 9 9 10 11 12 13 13 13 14 14 14 14
6 6 6 5 5 4 4 3 3 3 3 3 3 3 3 3 4 5 5 5 5 6 7 7 8 8 9 9 9 10 10 11 11 12 12 12 13 14 14 14 15 15 14
6 6 5 6 5 5 5 5 4 4 4 4 4 4 4 4 4 5 6 6 6 7 8 9 9 10 10 10 10 10 11 11 12 13 13 14 14 14 14 15 15 15 15
6 6 6 6 6 6 6 5 5 5 5 5 5 5 4 4 5 5 6 7 7 8 8 9 10 10 11 11 11 11 12 12 12 13 14 14 14 14 15 16 15 15 16
6 6 6 6 6 7 7 6 6 5 5 5 5 5 5 5 5 6 7 7 7 7 8 9 9 10 10 11 11 12 12 12 12 13 13 14 14 14 14 15 15 14 14
7 7 6 6 6 7 7 6 6 5 5 5 5 6 6 7 7 6 7 7 7 8 9 9 10 10 11 11 11 11 12 12 12 12 13 13 13 13 13 12 13 13 13
7 7 6 6 6 6 6 6 6 6 6 6 6 6 7 7 8 7 8 8 8 9 10 10 10 11 12 12 12 12 12 12 13 13 12 12 12 12 13 12 13 13 14
6 6 6 6 6 6 6 6 7 7 7 7 7 7 8 8 9 9 9 9 9 10 10 11 11 11 12 12 12 12 12 12 13 13 13 12 12 12 12 13 13 14 14
6 6 6 7 7 6 6 7 8 8 8 8 8 8 9 9 9 10 9 10 10 10 11 11 12 11 11 11 11 11 11 11 12 12 13 13 13 13 13 13 13 14 14
6 6 7 7 7 7 7 7 8 9 9 9 9 9 9 9 10 10 10 10 11 11 11 11 12 12 12 11 12 12 12 12 12 12 13 13 14 13 13 14 14 15 15
6 6 7 7 7 7 7 8 8 8 8 9 10 10 11 11 11 11 12 12 11 12 12 13 13 13 12 13 13 13 13 13 13 13 13 13 14 14 14 14 15 15 15
6 6 7 7 7 8 8 8 8 8 9 9 10 11 11 12 12 13 13 13 13 12 13 13 13 13 13 13 13 13 13 13 13 14 13 14 14 14 14 13 14 15 15
6 6 7 7 8 9 9 9 8 9 9 10 11 12 13 13 13 14 14 14 14 14 14 14 13 13 13 13 14 14 14 13 13 13 13 13 13 14 14 15 15 15 16
6 7 7 8 9 9 9 9 9 10 10 11 12 13 14 14 14 14 15 15 15 15 15 15 14 14 14 14 14 14 14 14 13 13 13 13 14 14 14 16 16 17 17
7 7 7 8 9 9 10 10 10 11 11 12 13 14 15 15 15 16 16 16 16 16 16 16 15 15 15 14 15 15 15 15 14 14 14 14 14 15 16 16 16 17 18
7 7 8 9 9 10 11 11 11 12 12 13 13 14 15 16 16 17 17 17 17 17 17 16 16 16 16 15 15 15 15 15 15 15 15 15 16 16 16 17 17 17 18
8 9 9 10 10 11 12 12 13 13 13 14 15 16 16 17 17 18 18 18 18 18 18 18 18 18 17 17 16 16 16 16 16 16 16 17 17 17 18 18 18 18 18
9 10 10 11 12 13 13 13 14 14 14 15 16 17 17 18 18 18 19 19 19 19 19 19 19 19 19 18 18 18 17 17 17 17 17 18 18 19 19 19 19 20 20
10 11 12 12 13 14 14 14 15 15 15 16 17 17 18 18 19 19 19 20 20 21 21 20 20 20 20 20 20 19 19 19 18 18 18 19 19 19 20 20 20 21 21
11 12 13 14 15 15 16 16 16 16 17 18 18 19 19 19 20 20 20 21 22 22 22 22 21 21 21 21 21 20 20 20 20 20 19 20 21 22 22 22 22 22 23
13 15 15 15 16 16 17 17 18 18 19 20 20 21 21 20 21 22 22 22 23 23 23 22 22 22 22 22 22 21 21 21 21 21 21 21 22 23 23 23 23 24 25
15 16 16 17 17 18 18 19 20 19 20 21 21 22 22 22 22 23 24 24 24 24 24 23 23 24 24 23 23 23 23 23 22 22 22 22 23 24 24 25 25 26 27
16 17 18 18 19 20 20 21 21 21 22 23 23 24 24 24 24 24 25 25 25 25 25 25 25 24 24 24 24 24 24 24 24 24 24 24 25 25 25 26 27 27 27
Wind_Direction
98 98 98 96 96 96 91 79 84 92 94 74 254 257 268 278 271 260 266 269 261 273 281 271 271 275 278 275 274 271 269 267 264 262 260 258 260 261 263 262 258 257 257
96 92 94 92 91 87 82 71 62 56 64 57 324 274 281 282 287 290 282 276 281 284 287 289 286 286 287 286 283 281 275 268 263 261 262 264 264 266 266 264 259 257 257
89 91 89 87 89 86 83 79 73 58 53 35 359 337 320 312 308 307 299 298 290 288 289 286 286 285 287 288 285 282 278 274 272 269 266 266 267 267 266 262 260 259 258
84 85 82 83 83 84 74 63 50 40 34 27 8 358 353 349 337 323 311 311 309 306 303 298 290 286 286 287 287 282 280 282 281 278 275 271 268 265 265 263 261 260 259
85 81 74 77 78 75 59 38 31 23 20 17 11 359 352 346 340 336 331 327 321 312 305 301 292 291 292 289 286 282 279 281 279 277 276 275 272 268 268 266 264 262 261
85 79 74 69 73 73 61 50 45 38 29 21 16 4 354 347 340 336 334 326 315 308 304 299 293 292 290 288 284 280 277 277 275 273 274 274 273 271 268 268 267 262 260
82 76 71 69 63 58 50 42 44 41 32 25 24 17 6 353 344 336 329 323 316 312 309 306 299 294 291 291 286 282 281 281 280 277 277 274 273 271 269 267 263 263 264
77 70 72 66 58 50 45 40 35 34 27 20 15 12 5 354 345 336 328 326 326 324 321 317 310 301 296 294 289 287 286 285 284 283 280 276 274 274 272 265 259 262 266
74 67 63 57 52 45 39 34 29 23 15 9 3 0 359 355 350 343 335 330 332 327 324 321 316 309 305 298 293 290 287 284 284 286 283 278 274 274 269 270 264 263 266
71 66 60 52 45 36 29 25 20 10 4 358 351 348 349 347 345 343 337 333 328 325 325 322 318 312 307 303 301 295 291 288 287 286 284 280 275 269 268 265 263 262 263
65 62 54 43 32 24 17 14 12 5 358 354 350 348 346 345 343 341 337 333 329 326 323 323 321 319 313 307 301 296 292 289 290 285 280 278 276 274 272 270 269 267 265
53 43 32 26 22 16 14 15 12 5 0 357 353 347 346 345 344 342 340 335 331 325 321 318 319 321 319 314 309 303 297 293 292 287 281 280 278 276 272 270 269 266 265
36 27 18 16 14 14 16 15 11 8 5 2 360 357 354 347 345 344 341 336 331 327 322 319 317 317 317 315 311 309 305 300 298 293 283 281 282 281 276 270 270 269 267
26 20 15 12 11 12 9 5 4 4 3 0 358 355 353 351 346 342 340 334 329 327 324 322 317 315 313 312 309 305 306 301 294 291 286 285 284 283 277 273 270 271 270
21 15 10 7 7 5 2 358 359 1 359 355 350 348 345 344 342 340 337 335 331 327 324 321 319 317 313 312 309 307 303 301 298 294 290 286 283 282 281 279 277 274 270
8 2 2 2 360 356 355 354 352 351 349 348 346 343 340 339 339 337 335 334 332 327 323 322 322 318 315 314 310 306 303 300 300 298 295 292 288 284 281 280 279 276 274
353 351 353 353 351 349 346 347 346 344 342 340 339 337 335 333 333 333 332 330 328 327 325 323 320 317 316 315 311 306 304 300 299 298 296 294 291 286 283 282 279 277 275
346 343 342 343 344 345 343 342 339 336 335 335 335 333 332 330 330 330 329 327 325 323 323 321 320 318 316 313 311 310 306 303 301 300 297 295 292 289 286 285 282 279 278
339 336 334 335 337 339 338 337 334 331 330 330 331 331 330 327 325 326 326 325 322 319 320 320 319 317 316 313 311 311 308 304 301 298 297 295 293 291 289 287 286 285 282
336 334 329 328 329 330 330 331 331 330 329 329 329 328 327 325 323 322 322 323 321 319 317 317 317 316 314 312 310 308 305 302 299 297 294 293 292 291 288 287 285 286 287
330 331 329 325 323 323 323 324 323 324 324 325 326 327 327 324 322 323 322 321 320 317 316 315 313 312 311 309 307 306 305 303 300 297 295 294 293 292 289 287 286 286 285
319 321 323 322 322 321 321 321 322 321 322 323 324 324 324 325 322 321 320 320 318 316 315 313 311 310 307 305 304 303 303 303 300 297 295 296 296 293 290 286 285 284 284
309 312 315 316 319 317 315 318 320 319 319 318 319 320 320 320 319 318 317 317 315 314 313 312 311 311 308 305 304 303 302 300 299 296 293 293 294 294 292 289 286 283 283
304 306 310 313 316 316 314 314 316 316 316 316 316 316 316 316 316 316 316 315 313 312 312 311 311 309 308 306 303 301 301 302 301 299 297 294 293 294 292 290 288 285 284
304 306 307 311 314 314 312 312 313 313 313 313 313 314 315 314 313 313 313 313 312 310 309 308 309 308 307 306 303 301 301 302 302 301 299 298 296 295 294 292 290 289 287
302 304 306 309 310 312 311 309 309 310 311 312 312 313 313 312 312 312 312 312 311 310 309 308 308 308 307 305 303 302 300 300 300 299 299 298 298 296 294 294 292 291 290
Height
5888 5888 5888 5888 5888 5888 5888 5888 5887 5887 5887 5887 5886 5886 5885 5885 5884 5884 5884 5883 5882 5882 5881 5881 5880 5879 5879 5878 5877 5877 5876 5876 5876 5876 5875 5875 5875 5875 5875 5874 5874 5874 5874
5889 5889 5889 5889 5889 5888 5888 5888 5888 5887 5887 5887 5886 5886 5885 5884 5884 5884 5883 5882 5881 5881 5880 5879 5878 5878 5877 5876 5875 5875 5874 5874 5873 5873 5873 5873 5872 5872 5872 5872 5872 5872 5872
5890 5890 5890 5890 5889 5889 5889 5889 5888 5888 5887 5887 5886 5886 5885 5884 5884 5883 5882 5881 5880 5879 5879 5878 5877 5876 5875 5874 5873 5873 5872 5871 5871 5871 5870 5870 5870 5869 5869 5869 5869 5869 5869
5891 5891 5891 5890 5890 5890 5889 5889 5888 5888 5887 5887 5886 5886 5885 5884 5883 5882 5881 5880 5879 5878 5877 5876 5875 5874 5874 5872 5871 5871 5870 5869 5869 5868 5868 5867 5867 5866 5866 5866 5866 5865 5865
5892 5892 5891 5891 5891 5890 5889 5889 5888 5888 5887 5886 5886 5885 5885 5884 5883 5881 5880 5879 5878 5877 5876 5875 5874 5873 5872 5870 5869 5868 5868 5867 5866 5865 5865 5864 5863 5863 5863 5862 5862 5862 5862
5893 5893 5892 5892 5891 5890 5890 5889 5889 5888 5887 5886 5886 5885 5884 5883 5882 5881 5879 5878 5877 5876 5875 5873 5872 5871 5869 5868 5867 5866 5865 5864 5863 5862 5861 5861 5860 5860 5859 5859 5859 5859 5859
5894 5893 5893 5892 5892 5891 5890 5890 5889 5888 5887 5886 5886 5885 5884 5883 5881 5880 5879 5877 5876 5875 5873 5871 5870 5868 5867 5866 5865 5864 5862 5861 5860 5859 5858 5858 5857 5856 5856 5855 5855 5855 5855
5894 5894 5893 5893 5892 5892 5891 5890 5889 5888 5887 5887 5886 5884 5883 5883 5881 5879 5878 5876 5875 5873 5871 5870 5868 5866 5865 5863 5862 5861 5860 5858 5857 5856 5855 5854 5853 5852 5852 5851 5851 5851 5851
5895 5894 5894 5893 5893 5892 5891 5890 5889 5888 5887 5886 5885 5884 5883 5881 5880 5878 5876 5875 5873 5871 5869 5867 5865 5864 5862 5861 5859 5858 5857 5856 5854 5853 5852 5851 5850 5849 5849 5848 5847 5847 5847
5896 5895 5894 5894 5893 5892 5891 5890 5889 5888 5887 5885 5884 5883 5882 5880 5879 5877 5875 5873 5871 5869 5867 5865 5863 5861 5860 5858 5857 5855 5854 5853 5851 5850 5849 5848 5847 5846 5845 5845 5844 5844 5844
5896 5895 5895 5894 5893 5892 5891 5889 5888 5887 5886 5884 5883 5881 5880 5879 5877 5876 5874 5872 5870 5868 5865 5863 5861 5859 5857 5855 5854 5852 5851 5849 5848 5847 5846 5845 5844 5843 5842 5841 5841 5840 5840
5897 5896 5895 5894 5892 5891 5890 5889 5888 5886 5885 5883 5882 5880 5879 5877 5875 5874 5872 5870 5868 5866 5864 5862 5859 5857 5855 5853 5851 5849 5848 5846 5845 5843 5842 5841 5840 5839 5838 5838 5837 5836 5836
5897 5896 5895 5894 5892 5891 5890 5888 5887 5886 5884 5882 5881 5879 5877 5876 5874 5872 5870 5868 5866 5863 5861 5859 5857 5855 5853 5851 5848 5847 5845 5843 5842 5840 5839 5838 5837 5836 5835 5834 5833 5832 5832
5897 5895 5894 5893 5892 5890 5889 5888 5886 5885 5883 5881 5880 5878 5876 5874 5872 5870 5868 5866 5863 5861 5859 5857 5854 5852 5850 5848 5846 5844 5842 5840 5838 5837 5835 5834 5833 5832 5831 5830 5829 5828 5828
5896 5895 5894 5893 5891 5890 5888 5887 5885 5884 5882 5880 5879 5876 5875 5872 5870 5868 5865 5863 5861 5858 5856 5854 5851 5849 5847 5844 5842 5840 5838 5836 5835 5833 5832 5830 5829 5828 5827 5826 5825 5824 5824
5896 5895 5894 5892 5891 5889 5888 5886 5884 5883 5881 5879 5877 5875 5873 5870 5868 5865 5863 5860 5858 5856 5853 5851 5848 5846 5843 5841 5839 5837 5835 5833 5831 5829 5828 5826 5825 5824 5823 5822 5821 5820 5819
5895 5894 5893 5892 5890 5888 5886 5885 5883 5881 5879 5877 5875 5873 5871 5868 5866 5863 5860 5858 5855 5853 5850 5848 5845 5843 5840 5838 5835 5833 5831 5829 5827 5825 5824 5823 5821 5820 5819 5818 5817 5816 5815
5894 5893 5892 5890 5889 5887 5885 5883 5881 5879 5877 5875 5873 5871 5868 5866 5863 5860 5858 5855 5852 5850 5847 5844 5842 5839 5837 5834 5832 5830 5827 5825 5823 5822 5820 5819 5817 5816 5815 5813 5812 5811 5810
5892 5891 5890 5888 5887 5885 5883 5881 5879 5877 5875 5873 5871 5868 5866 5863 5860 5858 5855 5852 5849 5846 5844 5841 5838 5836 5833 5831 5828 5826 5824 5821 5819 5817 5816 5814 5813 5811 5810 5809 5807 5806 5805
5891 5889 5888 5886 5885 5883 5881 5879 5877 5875 5872 5870 5868 5865 5863 5860 5857 5854 5851 5848 5845 5843 5840 5837 5835 5832 5829 5827 5824 5822 5820 5817 5815 5813 5811 5809 5808 5806 5805 5804 5802 5801 5799
5889 5887 5886 5884 5882 5880 5878 5876 5874 5872 5869 5867 5864 5862 5859 5856 5853 5851 5848 5845 5842 5839 5836 5833 5830 5828 5825 5822 5820 5817 5815 5813 5810 5808 5806 5804 5803 5801 5799 5798 5796 5795 5793
5887 5885 5883 5881 5879 5877 5875 5873 5871 5868 5866 5864 5861 5858 5855 5852 5849 5847 5844 5841 5838 5835 5831 5829 5826 5823 5820 5817 5814 5812 5810 5807 5805 5804 5801 5799 5797 5795 5794 5792 5790 5789 5787
5883 5882 5880 5878 5876 5874 5872 5869 5867 5865 5862 5860 5857 5854 5851 5848 5845 5842 5839 5836 5833 5829 5827 5824 5820 5817 5815 5812 5809 5806 5804 5802 5800 5798 5796 5793 5791 5789 5787 5785 5783 5781 5780
5880 5878 5876 5874 5872 5870 5867 5865 5863 5860 5858 5855 5852 5849 5846 5843 5840 5837 5834 5830 5827 5824 5821 5818 5815 5812 5809 5806 5803 5801 5798 5796 5794 5791 5789 5787 5785 5783 5780 5778 5776 5774 5773
5876 5874 5872 5870 5868 5866 5863 5861 5858 5855 5853 5850 5847 5844 5841 5838 5835 5831 5828 5825 5821 5818 5815 5812 5809 5806 5803 5800 5797 5795 5792 5789 5787 5785 5782 5780 5778 5775 5773 5770 5768 5766 5764
5871 5869 5867 5865 5863 5861 5858 5856 5853 5851 5848 5845 5842 5839 5836 5832 5829 5825 5822 5819 5815 5812 5809 5805 5803 5800 5796 5793 5790 5788 5785 5783 5780 5778 5775 5773 5770 5768 5766 5763 5760 5758 5756